Location: Lane
(33.5226°N, 79.8788°W)
Time: 08:39:16
(UTC+00:00)

Vanguard 2 - Pass Details

Date: 11 October 2022
Orbit: 553 x 2932 km, 32.9° (Epoch: 08 December)

Event Time Altitude Azimuth Distance (km) Brightness Sun altitude
Rises 14:50:14 0° 231° (SW) 3,181 10.7 38.1°
Reaches altitude 10° 14:52:20 10° 225° (SW) 2,441 10.2 38.4°
Maximum altitude 14:57:52 48° 151° (SSE) 1,441 11.1 39.2°
Drops below altitude 10° 15:06:52 10° 82° (E) 3,929 11.6 40.4°
Sets 15:11:08 0° 77° (ENE) 5,334 12.1 41.0°
